Location: Seattle
(47.6064°N, 122.3308°W)
Time: 13:02:04
(UTC-07:00)

SEEDS - Pass Details

Date: 07 April 2023
Orbit: 568 x 587 km, 97.7° (Epoch: 30 May)

Event Time Altitude Azimuth Distance (km) Brightness Sun altitude
Rises 04:27:00 0° 23° (NNE) 2,837 ? -20.6°
Reaches altitude 10° 04:29:26 10° 35° (NE) 1,929 ? -20.3°
Maximum altitude 04:33:03 28° 95° (E) 1,127 ? -19.8°
Drops below altitude 10° 04:36:38 10° 155° (SSE) 1,909 ? -19.3°
Enters shadow 04:37:52 - 162° (SSE) 2,363 ? -19.2°
